Location: Colebrook
(42.0017°N, 73.0973°W)
Time: 10:18:45
(UTC-04:00)

N. Korean satellite - Visible Passes

Search period start: 06 October 2022 00:00
Search period end: 16 October 2022 00:00
Orbit: 425 x 467 km, 97.3° (Epoch: 05 October)

Date Brightness Start Highest point End Pass type
(mag) Time Alt. Az. Time Alt. Az. Time Alt. Az.
06 Oct 8.5 05:39:57 10° NE 05:42:52 29° E 05:45:46 10° SSE visible
07 Oct 10.1 05:06:14 10° E 05:06:34 10° E 05:06:52 10° E visible
08 Oct 7.0 06:00:07 10° NNE 06:03:21 59° E 06:06:35 10° S visible
09 Oct 9.4 05:24:40 10° NE 05:27:03 18° E 05:29:25 10° SE visible
10 Oct 6.2 06:20:19 10° N 06:23:34 67° WNW 06:26:50 10° SSW visible
11 Oct 8.2 05:44:14 10° NNE 05:47:15 34° E 05:50:16 10° SSE visible
12 Oct 9.9 05:09:30 10° ENE 05:10:42 12° E 05:11:54 10° ESE visible
13 Oct 6.7 06:03:54 10° NNE 06:07:10 68° E 06:10:28 10° S visible
14 Oct 9.2 05:28:04 10° NE 05:30:37 21° E 05:33:10 10° SE visible
15 Oct 6.3 06:23:35 10° N 06:26:50 60° WNW 06:30:05 10° SSW visible
